Location: St. Malo Provincial Park
(49.3214°N, 96.9305°W)
Time: 11:58:16
(UTC-05:00)

Daily predictions for brighter satellites

Satellite Brightness Start Highest point End
(mag) Time Altitude Azimuth Time Altitude Azimuth Time Altitude Azimuth
Cosmos 2263 Rocket 4.3 20:13:40 10° WSW 20:18:28 28° NW 20:23:15 10° NNE
ATLAS 5 CENTAUR R/B 3.6 20:18:04 10° SE 20:19:38 11° ESE 20:21:13 10° E
Abrixas 3.8 20:21:05 10° W 20:23:39 30° SSW 20:26:11 10° SE
Cosmos 1934 Rocket 3.9 20:17:40 10° S 20:23:44 69° E 20:29:46 10° NNE
H-2A R/B 2.8 20:21:05 10° SSE 20:24:58 63° ENE 20:28:53 10° N
FengYun 1-2 T 4.3 20:22:13 10° SSE 20:27:48 89° ENE 20:33:29 10° NNW
Spot 2 Rocket 3.5 20:25:28 10° SSE 20:30:33 72° ENE 20:35:40 10° NNW
Helios 1B rocket 3.6 20:27:42 10° NE 20:30:57 22° E 20:34:10 10° SE
Cosmos 1076 Rocket 3.8 20:27:00 10° N 20:31:06 44° ENE 20:35:09 10° SSE
Meteor 1-24 Rocket 4.2 20:28:34 10° NNW 20:34:00 68° W 20:39:37 10° S
Cosmos 2082 Rocket 2.3 20:28:40 10° NNW 20:34:20 61° ENE 20:39:56 10° SE
Cosmos 1758 3.9 20:30:57 10° SSE 20:34:34 35° E 20:38:14 10° NNE
Cosmos 1812 Rocket 3.7 20:30:19 10° SSW 20:34:43 83° W 20:39:08 10° N
FREGAT/IRIS 4.5 20:33:01 10° SSW 20:35:53 35° W 20:38:45 10° NNW
Lacrosse 5 2.0 20:33:05 10° SW 20:38:03 58° SE 20:43:03 10° ENE
Cosmos 990 Rocket 4.1 20:34:19 10° SSW 20:39:34 89° WNW 20:44:51 10° NNE
USA 186 1.4 20:40:03 10° SE 20:42:09 36° ENE 20:44:15 10° N
Cosmos 1953 2.8 20:38:42 10° SSE 20:42:30 39° E 20:46:18 10° NNE
Lacrosse 4 Rocket 2.4 20:38:52 10° SW 20:42:48 49° NW 20:46:47 10° NNE
Cosmos 2150 Rocket 4.5 20:39:32 10° SW 20:44:38 65° WNW 20:49:49 10° NNE
Cosmos 1766 Rocket 3.9 20:42:31 10° N 20:46:54 48° ENE 20:51:14 10° SSE
GP-B 3.6 20:43:40 10° SSE 20:47:48 40° E 20:51:57 10° NNE
Envisat 3.4 20:43:54 10° SE 20:48:40 43° ENE 20:53:28 10° N
Cosmos 1939 Rocket 3.8 20:45:32 11° SE 20:49:04 32° ENE 20:52:46 10° N
Helios 1A 3.1 20:45:05 10° SSE 20:49:10 57° ENE 20:53:18 10° N
Cosmos 1271 Rocket 3.9 20:47:59 10° SE 20:51:16 24° E 20:54:34 10° NE
Cosmos 1766 3.8 20:49:57 10° SSW 20:53:47 63° WNW 20:57:41 10° N
Resurs 01 Rocket 2.0 20:49:32 10° S 20:53:56 67° WSW 20:58:22 10° NNW
Cosmos 1184 Rocket 4.4 20:51:22 10° NNE 20:53:57 20° ENE 20:55:04 17° E
USA 267 3.8 20:48:09 10° E 20:54:26 51° NNE 21:00:42 10° WNW
H-2A R/B 4.1 20:53:07 10° ENE 20:55:09 12° NE 20:57:09 10° NNE
Cosmos 1048 Rocket 3.9 20:51:10 10° NNW 20:56:20 84° ENE 21:01:28 10° SSE
Cosmos 1125 Rocket 3.7 20:52:08 10° S 20:57:08 49° ESE 21:02:09 10° NNE
Geosat 4.3 20:53:19 10° NE 20:58:08 44° ESE 21:02:55 10° S
Lacrosse 5 rocket 1.1 20:55:47 10° NW 20:59:49 79° NE 21:02:25 19° ESE
Cosmos-2242 3.5 20:57:46 10° SSE 21:01:39 36° E 21:05:34 10° NNE
Cosmos 1674 2.6 20:59:05 10° N 21:02:52 63° E 21:06:37 10° SSE
ERS-1 Rocket 3.7 21:03:22 17° ESE 21:06:43 36° ENE 21:11:18 10° N
Cosmos 1605 Rocket 4.1 21:01:12 10° S 21:07:29 84° W 21:13:55 10° N
Cosmos 2100 Rocket 4.2 21:03:35 10° SSE 21:09:37 49° E 21:15:44 10° NNE
SeaSat 1 4.2 21:06:01 10° S 21:10:24 32° WSW 21:14:49 10° NW
SAR-Lupe-4 3.7 21:06:58 10° S 21:10:34 77° WSW 21:14:10 10° NNW
SJ-11-01 4.4 21:06:19 11° SSE 21:10:46 59° ENE 21:15:25 10° N
YAOGAN 6 3.7 21:10:53 23° ESE 21:12:07 29° ENE 21:15:23 10° N
Meteor 1-29 3.1 21:14:18 10° NNE 21:17:42 49° E 21:21:06 10° S
Cosmos 1743 Rocket 3.8 21:14:04 10° N 21:18:23 49° ENE 21:21:02 22° SE
Cosmos 1500 Rocket 4.1 21:16:03 10° N 21:20:06 37° ENE 21:21:46 27° ESE
CZ-2D R/B 4.5 21:16:49 10° S 21:20:31 43° W 21:24:16 10° NNW
Cosmos 1356 Rocket 4.0 21:18:59 10° N 21:22:52 37° ENE 21:24:09 29° ESE
H-2A R/B 4.2 21:23:36 11° ENE 21:23:44 11° NE 21:24:57 10° NE
COSMOS 2487 3.3 21:20:36 10° NNW 21:24:05 51° WSW 21:27:14 12° S
Cosmos 1805 4.1 21:21:53 10° SSW 21:25:43 53° WNW 21:29:33 10° N
Cosmos 1802 Rocket 4.0 21:24:54 10° SSE 21:30:50 55° E 21:36:52 10° NNE
Cosmos 2251 Rocket 3.7 21:26:15 10° NNW 21:31:30 57° ENE 21:34:11 28° SE
BREEZE-M DEB (TANK) 3.8 21:28:35 10° SW 21:31:59 59° SSE 21:43:08 10° ENE
Cosmos 1626 4.0 21:32:16 10° NNE 21:34:15 17° NE 21:34:15 17° NE
Meteor 1-4 Rocket 3.4 21:32:41 10° SSW 21:36:04 48° WNW 21:39:29 10° N
Cosmos 1408 Rocket 4.3 21:35:19 10° NNW 21:39:41 53° W 21:44:02 10° S
Cosmos 1470 2.7 21:37:44 10° S 21:41:44 89° ENE 21:45:44 10° N
Cosmos 1833 Rocket 3.4 21:36:54 10° NW 21:42:20 51° WSW 21:47:24 12° S
Cosmos 2061 Rocket 4.0 21:38:06 10° S 21:44:28 75° E 21:50:55 10° NNE
Cosmos 1340 Rocket 3.1 21:41:16 10° NNW 21:45:17 65° W 21:47:49 21° S
CZ-4B DEB 4.1 21:44:35 16° SSW 21:46:39 36° W 21:49:35 10° NNW
MetOp-B 4.3 21:44:57 34° SE 21:47:00 52° ENE 21:52:12 10° N
Cosmos 1733 3.3 21:46:33 10° SSW 21:50:25 77° W 21:54:19 10° N
NOAA 11 4.3 21:49:03 35° SE 21:51:08 55° ENE 21:56:31 10° N
Cosmos 2278 Rocket 3.5 21:47:10 10° WSW 21:52:33 42° NW 21:57:58 10° NNE
Cosmos 2058 3.1 21:49:43 10° N 21:53:47 47° ENE 21:53:54 47° E
Cosmos 372 Rocket 4.1 21:49:19 10° SSW 21:54:26 77° WNW 21:59:38 10° NNE
Cosmos 2344 4.3 21:48:17 10° WSW 21:55:59 62° NW 22:05:23 10° NE
Cosmos 1842 Rocket 3.5 21:55:26 46° SSE 21:56:29 62° E 22:00:50 10° NNE
CZ-3B DEB 2.5 21:48:50 10° WSW 21:57:17 64° NNW 21:59:51 24° NE
Cosmos 2151 2.9 21:55:03 10° N 21:59:19 68° ENE 21:59:52 60° SE
Cosmos 1459 Rocket 4.0 21:54:46 10° SSW 22:01:02 80° W 22:07:14 10° N
USA 215 3.3 21:55:48 10° ENE 22:02:08 50° SE 22:08:26 10° SSW
ATLAS CENTAUR R/B 3.7 22:01:07 10° NNW 22:01:07 10° NNW 22:01:07 10° NNW
ATLAS 5 CENTAUR R/B 1.7 21:58:28 10° SSW 22:03:12 72° SE 22:08:27 10° NE
TIMED 4.4 22:02:52 60° SE 22:03:18 64° ESE 22:07:40 10° NNE
USA 245 4.5 22:01:58 41° SE 22:03:47 59° ENE 22:09:59 10° N
Helios 1B rocket 3.7 22:02:31 10° N 22:06:26 41° WNW 22:10:18 10° SW
Cosmos 2173 Rocket 4.1 22:00:43 10° SSW 22:06:53 75° W 22:13:13 10° N
Cosmos 2233 Rocket 4.4 22:07:53 39° E 22:08:17 40° E 22:13:57 10° NNE
Cosmos 2297 4.2 22:02:41 10° SW 22:08:20 61° WNW 22:14:04 10° NNE
Cosmos 1867 3.8 22:04:00 10° SW 22:09:28 73° NW 22:14:58 10° NE
BREEZE-M DEB (TANK) 4.2 22:06:30 10° SW 22:10:58 51° SE 22:27:33 10° ENE
YAOGAN 11 4.1 22:10:19 58° SSE 22:11:13 87° ENE 22:15:48 10° NNW
Cosmos 1864 Rocket 4.4 22:08:56 31° SSE 22:12:00 65° E 22:18:15 10° NNE
SL-14 R/B 3.5 22:09:13 10° NNW 22:13:04 65° W 22:13:33 58° SW
Cosmos 494 Rocket 4.2 22:10:37 10° NNW 22:15:42 66° WSW 22:17:23 41° S
Cosmos 1328 4.4 22:12:01 10° NNW 22:15:54 53° W 22:16:49 42° SW
Meteor 1-11 4.2 22:11:08 10° NNW 22:16:45 81° W 22:18:56 39° S
Cosmos 2082 Rocket 4.1 22:13:25 10° NW 22:18:01 26° WSW 22:22:34 10° SSW
Lacrosse 5 2.7 22:16:16 10° W 22:21:11 48° NNW 22:24:37 19° NE
SPOT 5 3.0 22:24:16 57° SSE 22:25:25 88° ENE 22:30:47 10° NNW
Landsat 7 4.5 22:27:53 42° NE 22:27:53 42° NE 22:31:53 10° N
Meteor 1-16 Rocket 4.4 22:26:07 18° SSW 22:30:36 78° WNW 22:36:35 10° N
MetOp-A 4.3 22:31:24 46° SSW 22:32:56 68° WSW 22:38:17 10° NNW
Sich 1 4.1 22:29:11 10° N 22:32:11 35° NNE 22:32:11 35° NNE
H-2A R/B 2.1 22:33:28 61° ENE 22:33:35 61° ENE 22:38:48 10° N
ARGOS 3.0 22:33:03 65° SSE 22:33:53 88° WSW 22:39:17 10° NNW
USA 267 3.2 22:35:30 54° ESE 22:37:11 90° W 22:43:46 10° WNW
Cosmos 1633 Rocket 4.3 22:33:51 10° N 22:36:42 33° NNE 22:36:42 33° NNE
Lacrosse 5 rocket 3.3 22:35:48 10° W 22:38:08 18° WSW 22:38:08 18° WSW
Cosmos 2016 Rocket 4.4 22:32:36 10° SSW 22:38:44 60° WNW 22:44:50 10° N
Meteor 2-1 Rocket 4.1 22:41:07 71° SSE 22:41:43 81° E 22:47:24 10° NNE
Terra 2.7 22:43:38 38° NE 22:43:38 38° NE 22:47:08 10° N
Cosmos 1703 4.3 22:41:06 10° NNW 22:43:58 45° NNW 22:43:58 45° NNW
ERS-1 Rocket 4.3 22:43:21 25° SW 22:45:29 36° W 22:50:08 10° NNW
Cosmos 1725 Rocket 4.1 22:43:44 31° SSW 22:46:53 74° W 22:53:07 10° N
Cosmos 2221 3.7 22:58:03 39° N 22:58:03 39° N 23:00:51 10° N
Cosmos 2297 Rocket 4.4 22:55:46 10° N 22:58:50 14° NNE 23:00:18 13° NE
H-2A R/B 3.3 23:00:43 36° N 23:00:43 36° N 23:03:12 10° NNW
Cosmos 1805 Rocket 4.4 22:57:08 10° NNW 23:00:30 49° NW 23:00:30 49° NW
SL-08 RB Rocket 4.4 23:05:11 52° WNW 23:05:11 52° WNW 23:09:16 10° NNW
Cosmos 1833 4.3 23:04:38 10° NNW 23:09:37 67° N 23:09:37 67° N
Cosmos 1626 4.3 23:06:58 10° NNW 23:08:56 26° NW 23:08:56 26° NW
Cosmos 2369 Rocket 3.1 23:16:36 38° NNE 23:16:36 38° NNE 23:20:00 10° NNE
SPOT 1/Viking Rocket 4.2 23:17:42 49° W 23:17:42 49° W 23:22:36 10° NNW
Cosmos 2227 Rocket 3.9 23:21:02 10° N 23:25:25 22° NE 23:25:26 22° NE
Cosmos 407 Rocket 4.4 23:27:14 10° NNW 23:30:58 44° N 23:30:58 44° N
USA 215 3.4 23:38:50 10° ENE 23:45:21 70° NNW 23:51:50 10° WSW
Cosmos 1943 Rocket 3.8 23:49:22 25° NNE 23:49:22 25° NNE 23:51:38 10° NNE
ATLAS 5 CENTAUR R/B 3.7 23:44:00 10° W 23:48:24 31° NNW 23:53:15 10° NE
